Orbital Elements at Epoch 2459000.5 (2020-May-31.0) TDB
Reference: JPL 32 (heliocentric ecliptic J2000)
Element | Value | Uncertainty (1-sigma) | Units |
e | .1499363668513351 | 3.1997e-08 | |
a | 2.758290878133597 | 1.4563e-08 | au |
q | 2.344722765147067 | 8.8648e-08 | au |
i | 2.35126416733743 | 4.135e-06 | deg |
node | 175.7876953142012 | 8.5949e-05 | deg |
peri | 97.19297497610003 | 8.7698e-05 | deg |
M | 233.1583952161555 | 2.1715e-05 | deg |
tp | 2459590.046070359190 (2022-Jan-10.54607036) | 0.00010377 | TDB |
period | 1673.241092234591 4.58 | 1.3251e-05 3.628e-08 | d yr |
n | .2151513022664444 | 1.7039e-09 | deg/d |
Q | 3.171858991120127 | 1.6746e-08 | au |
|
| | Orbit Determination Parameters
Additional Information
|